START_TIME,STEP,MOV.,M6,t_acc.,M7,t_acc.,M19,t_acc.,H36,t_acc.
1979-07-05 09:00:27.850 ,0,0,0.,12.0,0.,12.0,0.,12.0,0.,12.0
1979-07-05 09:00:39.850 ,0,0,0.,12.0,0.,12.0,0.,12.0,0.,12.0
1979-07-05 09:00:51.850 ,0,1,0.,12.0,0.,12.0,0.,12.0,0.,12.0
1979-07-05 09:01:03.850 ,0,1,0.,12.0,0.,12.0,0.,12.0,0.,12.0
1979-07-05 09:01:15.850 ,0,0,0.,12.0,0.,12.0,0.,12.0,0.,12.0
1979-07-05 09:01:27.850 ,0,0,0.,12.0,0.,12.0,0.,12.0,0.,12.0
1979-07-05 09:01:39.850 ,1,1,0.,12.0,0.,12.0,0.,12.0,0.,12.0
1979-07-05 09:01:51.850 ,1,1,0.,12.0,0.,12.0,0.,12.0,0.,12.0
1979-07-05 09:02:03.850 ,1,0,0.,12.0,0.,12.0,0.,12.0,0.,12.0
1979-07-05 09:02:15.850 ,1,0,0.,12.0,0.,12.0,0.,12.0,0.,12.0
1979-07-05 09:02:27.850 ,2,1,0.,12.0,0.,12.0,0.,12.0,0.,12.0
1979-07-05 09:02:39.850 ,2,1,0.,12.0,0.,12.0,0.,12.0,0.,12.0
1979-07-05 09:02:51.850 ,2,0,0.,12.0,0.,12.0,0.,12.0,0.,12.0
1979-07-05 09:03:03.850 ,2,0,0.,12.0,0.,12.0,0.,12.0,0.,12.0
1979-07-05 09:03:15.850 ,3,1,0.,12.0,0.,12.0,0.,12.0,0.,12.0
1979-07-05 09:03:27.850 ,3,1,0.,12.0,0.,12.0,0.,12.0,0.,12.0
1979-07-05 09:03:39.850 ,3,0,0.,12.0,0.,12.0,0.,12.0,0.,12.0
1979-07-05 09:03:51.850 ,3,0,0.,12.0,0.,12.0,0.,12.0,0.,12.0
1979-07-05 09:04:03.850 ,4,1,0.,12.0,0.,12.0,0.,12.0,0.,12.0
1979-07-05 09:04:15.850 ,4,1,0.,12.0,0.,12.0,0.,12.0,0.,12.0
1979-07-05 09:04:27.850 ,4,0,0.,12.0,0.,12.0,0.,12.0,0.,12.0
1979-07-05 09:04:39.850 ,4,0,0.,12.0,0.,12.0,0.,12.0,0.,12.0
1979-07-05 09:04:51.850 ,5,1,0.,12.0,0.,12.0,0.,12.0,0.,12.0
1979-07-05 09:05:03.850 ,5,1,0.,12.0,0.,12.0,0.,12.0,0.,12.0
1979-07-05 09:05:15.850 ,5,0,0.,12.0,0.,12.0,0.,12.0,0.,12.0
1979-07-05 09:05:27.850 ,5,0,0.,12.0,0.,12.0,0.,12.0,0.,12.0
1979-07-05 09:05:39.850 ,6,1,0.,12.0,0.,12.0,0.,12.0,0.,12.0
1979-07-05 09:05:51.850 ,6,1,0.,12.0,0.,12.0,0.,12.0,0.,12.0
1979-07-05 09:06:03.850 ,6,0,0.,12.0,0.,12.0,0.,12.0,0.,12.0
1979-07-05 09:06:15.850 ,6,0,0.,12.0,0.,12.0,0.,12.0,0.,12.0
1979-07-05 09:06:27.850 ,7,0,0.,12.0,0.,12.0,0.,12.0,0.,12.0
1979-07-05 09:06:39.850 ,7,0,0.,12.0,0.,12.0,0.,12.0,0.,12.0
1979-07-05 09:06:51.850 ,7,0,0.,12.0,0.,12.0,0.,12.0,0.,12.0
1979-07-05 09:07:03.850 ,7,0,0.,12.0,0.,12.0,0.,12.0,0.,12.0
1979-07-05 09:07:15.850 ,4,1,0.,12.0,0.,12.0,0.,12.0,0.,12.0
1979-07-05 09:07:27.850 ,4,1,0.,12.0,0.,12.0,0.,12.0,0.,12.0
1979-07-05 09:07:39.850 ,0,1,0.,12.0,0.,12.0,0.,12.0,0.,12.0
1979-07-05 09:07:51.850 ,0,1,0.,12.0,0.,12.0,0.,12.0,0.,12.0
1979-07-05 09:08:03.850 ,3,1,0.,12.0,0.,12.0,0.,12.0,0.,12.0
1979-07-05 09:08:15.850 ,3,1,0.,12.0,0.,12.0,0.,12.0,0.,12.0
1979-07-05 09:08:27.850 ,7,1,0.,12.0,0.,12.0,0.,12.0,0.,12.0
1979-07-05 09:08:39.850 ,7,1,0.,12.0,0.,12.0,0.,12.0,0.,12.0
1979-07-05 09:08:51.850 ,4,1,0.,12.0,0.,12.0,0.,12.0,0.,12.0
1979-07-05 09:09:03.850 ,4,1,0.,12.0,0.,12.0,0.,12.0,0.,12.0
1979-07-05 09:09:15.850 ,0,1,0.,12.0,0.,12.0,0.,12.0,0.,12.0
1979-07-05 09:09:27.850 ,0,1,0.,12.0,0.,12.0,0.,12.0,0.,12.0
1979-07-05 09:09:39.850 ,3,1,0.,12.0,0.,12.0,0.,12.0,0.,12.0
1979-07-05 09:09:51.850 ,3,1,0.,12.0,0.,12.0,0.,12.0,0.,12.0
1979-07-05 09:10:03.850 ,7,1,0.,12.0,0.,12.0,0.,12.0,0.,12.0
1979-07-05 09:10:15.850 ,7,1,0.,12.0,0.,12.0,0.,12.0,0.,12.0
1979-07-05 09:10:27.850 ,4,1,0.,12.0,0.,12.0,0.,12.0,0.,12.0
1979-07-05 09:10:39.850 ,4,1,0.,12.0,0.,12.0,0.,12.0,0.,12.0
1979-07-05 09:10:51.850 ,0,1,0.,12.0,0.,12.0,0.,12.0,0.,12.0
1979-07-05 09:11:03.850 ,0,1,1.,12.0,0.,12.0,0.,12.0,0.,12.0
1979-07-05 09:11:15.850 ,3,1,0.,12.0,0.,12.0,0.,12.0,0.,12.0
1979-07-05 09:11:27.850 ,3,1,0.,12.0,0.,12.0,0.,12.0,0.,12.0
1979-07-05 09:11:39.850 ,0,0,0.,12.0,0.,12.0,0.,12.0,0.,12.0
1979-07-05 09:11:51.850 ,0,0,0.,12.0,0.,12.0,0.,12.0,0.,12.0
1979-07-05 09:12:03.850 ,4,1,0.,12.0,0.,12.0,0.,12.0,0.,12.0
1979-07-05 09:12:15.850 ,4,1,0.,12.0,0.,12.0,0.,12.0,0.,12.0
1979-07-05 09:12:27.850 ,0,1,0.,12.0,0.,12.0,0.,12.0,0.,12.0
1979-07-05 09:12:39.850 ,0,1,0.,12.0,0.,12.0,0.,12.0,0.,12.0
1979-07-05 09:12:51.850 ,3,1,0.,12.0,0.,12.0,0.,12.0,0.,12.0
1979-07-05 09:13:03.850 ,3,1,0.,12.0,0.,12.0,0.,12.0,0.,12.0
1979-07-05 09:13:15.850 ,7,1,0.,12.0,0.,12.0,0.,12.0,0.,12.0
1979-07-05 09:13:27.850 ,7,1,0.,12.0,0.,12.0,0.,12.0,0.,12.0
1979-07-05 09:13:39.850 ,4,1,0.,12.0,0.,12.0,0.,12.0,0.,12.0
1979-07-05 09:13:51.850 ,4,1,0.,12.0,0.,12.0,0.,12.0,0.,12.0
1979-07-05 09:14:03.850 ,0,1,0.,12.0,0.,12.0,0.,12.0,0.,12.0
1979-07-05 09:14:15.850 ,0,1,0.,12.0,0.,12.0,0.,12.0,0.,12.0
1979-07-05 09:14:27.850 ,3,1,0.,12.0,0.,12.0,0.,12.0,0.,12.0
1979-07-05 09:14:39.850 ,3,1,0.,12.0,0.,12.0,0.,12.0,0.,12.0
1979-07-05 09:14:51.850 ,7,1,0.,12.0,0.,12.0,0.,12.0,0.,12.0
1979-07-05 09:15:03.850 ,7,1,0.,12.0,0.,12.0,0.,12.0,0.,12.0
1979-07-05 09:15:15.850 ,4,1,0.,12.0,0.,12.0,0.,12.0,0.,12.0
1979-07-05 09:15:27.850 ,4,1,0.,12.0,0.,12.0,0.,12.0,0.,12.0
1979-07-05 09:15:39.850 ,0,1,0.,12.0,0.,12.0,0.,12.0,0.,12.0
1979-07-05 09:15:51.850 ,0,1,0.,12.0,0.,12.0,0.,12.0,0.,12.0
1979-07-05 09:16:03.850 ,3,1,0.,12.0,0.,12.0,0.,12.0,0.,12.0
1979-07-05 09:16:15.850 ,3,1,0.,12.0,0.,12.0,0.,12.0,0.,12.0
1979-07-05 09:16:27.850 ,7,1,0.,12.0,0.,12.0,0.,12.0,0.,12.0
1979-07-05 09:16:39.850 ,7,1,0.,12.0,0.,12.0,0.,12.0,0.,12.0
1979-07-05 09:16:51.850 ,4,1,0.,12.0,0.,12.0,0.,12.0,0.,12.0
1979-07-05 09:17:03.850 ,4,1,0.,12.0,0.,12.0,0.,12.0,0.,12.0
1979-07-05 09:17:15.850 ,0,1,0.,12.0,0.,12.0,0.,12.0,0.,12.0
1979-07-05 09:17:27.850 ,0,1,0.,12.0,0.,12.0,0.,12.0,0.,12.0
1979-07-05 09:17:39.850 ,0,0,0.,12.0,0.,12.0,0.,12.0,0.,12.0
1979-07-05 09:17:51.850 ,0,0,0.,12.0,0.,12.0,0.,12.0,0.,12.0
1979-07-05 09:18:03.850 ,0,0,0.,12.0,0.,12.0,0.,12.0,0.,12.0
1979-07-05 09:18:15.850 ,0,0,0.,12.0,0.,12.0,0.,12.0,0.,12.0
1979-07-05 09:18:27.850 ,5,1,0.,12.0,0.,12.0,0.,12.0,0.,12.0
1979-07-05 09:18:39.850 ,5,1,0.,12.0,0.,12.0,0.,12.0,0.,12.0
1979-07-05 09:18:51.850 ,5,0,0.,12.0,0.,12.0,0.,12.0,0.,12.0
1979-07-05 09:19:03.850 ,5,0,0.,12.0,0.,12.0,0.,12.0,0.,12.0
1979-07-05 09:19:15.850 ,4,1,0.,12.0,0.,12.0,0.,12.0,0.,12.0
1979-07-05 09:19:27.850 ,4,1,0.,12.0,0.,12.0,0.,12.0,0.,12.0
1979-07-05 09:19:39.850 ,4,0,0.,12.0,0.,12.0,0.,12.0,0.,12.0
1979-07-05 09:19:51.850 ,4,0,0.,12.0,0.,12.0,0.,12.0,0.,12.0
1979-07-05 09:20:03.850 ,3,1,0.,12.0,0.,12.0,0.,12.0,0.,12.0
1979-07-05 09:20:15.850 ,3,1,0.,12.0,0.,12.0,0.,12.0,0.,12.0
1979-07-05 09:20:27.850 ,3,0,0.,12.0,0.,12.0,0.,12.0,0.,12.0
1979-07-05 09:20:39.850 ,3,0,0.,12.0,0.,12.0,0.,12.0,0.,12.0
1979-07-05 09:20:51.850 ,2,1,0.,12.0,0.,12.0,0.,12.0,0.,12.0
1979-07-05 09:21:03.850 ,2,1,0.,12.0,0.,12.0,0.,12.0,0.,12.0
1979-07-05 09:21:15.850 ,2,0,0.,12.0,0.,12.0,0.,12.0,0.,12.0
1979-07-05 09:21:27.850 ,2,0,0.,12.0,0.,12.0,0.,12.0,0.,12.0
1979-07-05 09:21:39.850 ,1,1,0.,12.0,0.,12.0,0.,12.0,0.,12.0
1979-07-05 09:21:51.850 ,1,1,0.,12.0,0.,12.0,0.,12.0,0.,12.0
1979-07-05 09:22:03.850 ,1,0,0.,12.0,0.,12.0,0.,12.0,0.,12.0
1979-07-05 09:22:15.850 ,1,0,0.,12.0,0.,12.0,0.,12.0,0.,12.0
1979-07-05 09:22:27.850 ,0,1,0.,12.0,0.,12.0,0.,12.0,0.,12.0
1979-07-05 09:22:39.850 ,0,1,0.,12.0,0.,12.0,0.,12.0,0.,12.0
1979-07-05 09:22:51.850 ,0,0,0.,12.0,0.,12.0,0.,12.0,0.,12.0
1979-07-05 09:23:03.850 ,0,0,0.,12.0,0.,12.0,0.,12.0,0.,12.0
1979-07-05 09:23:15.850 ,0,1,0.,12.0,0.,12.0,0.,12.0,0.,12.0
1979-07-05 09:23:27.850 ,0,1,0.,12.0,0.,12.0,0.,12.0,0.,12.0
1979-07-05 09:23:39.850 ,0,0,0.,12.0,0.,12.0,0.,12.0,0.,12.0
1979-07-05 09:23:51.850 ,0,0,0.,12.0,0.,12.0,0.,12.0,0.,12.0
1979-07-05 09:24:03.850 ,1,1,0.,12.0,0.,12.0,0.,12.0,0.,12.0
1979-07-05 09:24:15.850 ,1,1,0.,12.0,0.,12.0,0.,12.0,0.,12.0
1979-07-05 09:24:27.850 ,1,0,0.,12.0,0.,12.0,0.,12.0,0.,12.0
1979-07-05 09:24:39.850 ,1,0,0.,12.0,0.,12.0,0.,12.0,0.,12.0
1979-07-05 09:24:51.850 ,2,1,0.,12.0,0.,12.0,0.,12.0,0.,12.0
1979-07-05 09:25:03.850 ,2,1,0.,12.0,0.,12.0,0.,12.0,0.,12.0
1979-07-05 09:25:15.850 ,2,0,0.,12.0,0.,12.0,0.,12.0,0.,12.0
1979-07-05 09:25:27.850 ,2,0,0.,12.0,0.,12.0,0.,12.0,0.,12.0
1979-07-05 09:25:39.850 ,3,1,0.,12.0,0.,12.0,0.,12.0,0.,12.0
1979-07-05 09:25:51.850 ,3,1,0.,12.0,0.,12.0,0.,12.0,0.,12.0
1979-07-05 09:26:03.850 ,3,0,0.,12.0,0.,12.0,0.,12.0,0.,12.0
1979-07-05 09:26:15.850 ,3,0,0.,12.0,0.,12.0,0.,12.0,0.,12.0
1979-07-05 09:26:27.850 ,4,1,0.,12.0,0.,12.0,0.,12.0,0.,12.0
1979-07-05 09:26:39.850 ,4,1,0.,12.0,0.,12.0,0.,12.0,0.,12.0
1979-07-05 09:26:51.850 ,4,0,0.,12.0,0.,12.0,0.,12.0,0.,12.0
1979-07-05 09:27:03.850 ,4,0,0.,12.0,0.,12.0,0.,12.0,0.,12.0
1979-07-05 09:27:15.850 ,5,1,0.,12.0,0.,12.0,0.,12.0,0.,12.0
1979-07-05 09:27:27.850 ,5,1,0.,12.0,0.,12.0,0.,12.0,0.,12.0
1979-07-05 09:27:39.850 ,5,0,0.,12.0,0.,12.0,0.,12.0,0.,12.0
1979-07-05 09:27:51.850 ,5,0,0.,12.0,0.,12.0,0.,12.0,0.,12.0
1979-07-05 09:28:03.850 ,6,1,0.,12.0,0.,12.0,0.,12.0,0.,12.0
1979-07-05 09:28:15.850 ,6,1,0.,12.0,0.,12.0,0.,12.0,0.,12.0
1979-07-05 09:28:27.850 ,6,0,0.,12.0,0.,12.0,0.,12.0,0.,12.0
1979-07-05 09:28:39.850 ,6,0,0.,12.0,0.,12.0,0.,12.0,0.,12.0
1979-07-05 09:28:51.850 ,7,1,0.,12.0,0.,12.0,0.,12.0,0.,12.0
1979-07-05 09:29:03.850 ,7,1,0.,12.0,0.,12.0,0.,12.0,0.,12.0
1979-07-05 09:29:15.850 ,7,0,0.,12.0,0.,12.0,0.,12.0,0.,12.0
1979-07-05 09:29:27.850 ,7,0,0.,12.0,0.,12.0,0.,12.0,0.,12.0
1979-07-05 09:29:39.850 ,7,1,0.,12.0,0.,12.0,0.,12.0,0.,12.0
1979-07-05 09:29:51.850 ,7,1,0.,12.0,0.,12.0,0.,12.0,0.,12.0
1979-07-05 09:30:03.850 ,7,0,0.,12.0,0.,12.0,0.,12.0,0.,12.0
1979-07-05 09:30:15.850 ,7,0,0.,12.0,0.,12.0,0.,12.0,0.,12.0
1979-07-05 09:30:27.850 ,6,1,0.,12.0,0.,12.0,0.,12.0,0.,12.0
1979-07-05 09:30:39.850 ,6,1,0.,12.0,0.,12.0,0.,12.0,0.,12.0
1979-07-05 09:30:51.850 ,6,0,0.,12.0,0.,12.0,0.,12.0,0.,12.0
1979-07-05 09:31:03.850 ,6,0,0.,12.0,0.,12.0,0.,12.0,0.,12.0
1979-07-05 09:31:15.850 ,5,1,0.,12.0,0.,12.0,0.,12.0,0.,12.0
1979-07-05 09:31:27.850 ,5,1,0.,12.0,0.,12.0,0.,12.0,0.,12.0
1979-07-05 09:31:39.850 ,5,0,0.,12.0,0.,12.0,0.,12.0,0.,12.0
1979-07-05 09:31:51.850 ,5,0,0.,12.0,0.,12.0,0.,12.0,0.,12.0
1979-07-05 09:32:03.850 ,4,1,0.,12.0,0.,12.0,0.,12.0,0.,12.0
1979-07-05 09:32:15.850 ,4,1,0.,12.0,0.,12.0,0.,12.0,0.,12.0
1979-07-05 09:32:27.850 ,4,0,0.,12.0,0.,12.0,0.,12.0,0.,12.0
1979-07-05 09:32:39.850 ,4,0,0.,12.0,0.,12.0,0.,12.0,0.,12.0
1979-07-05 09:32:51.840 ,3,1,0.,12.0,0.,12.0,0.,12.0,0.,12.0
1979-07-05 09:33:03.840 ,3,1,0.,12.0,0.,12.0,0.,12.0,0.,12.0
1979-07-05 09:33:15.840 ,3,0,0.,12.0,0.,12.0,0.,12.0,0.,12.0
1979-07-05 09:33:27.840 ,3,0,0.,12.0,0.,12.0,0.,12.0,0.,12.0
1979-07-05 09:33:39.840 ,2,1,0.,12.0,0.,12.0,0.,12.0,0.,12.0
1979-07-05 09:33:51.840 ,2,1,0.,12.0,0.,12.0,0.,12.0,0.,12.0
1979-07-05 09:34:03.840 ,2,0,0.,12.0,0.,12.0,0.,12.0,0.,12.0
1979-07-05 09:34:15.840 ,2,0,0.,12.0,0.,12.0,0.,12.0,0.,12.0
1979-07-05 09:34:27.850 ,1,1,0.,12.0,0.,12.0,0.,12.0,0.,12.0
1979-07-05 09:34:39.850 ,1,1,0.,12.0,0.,12.0,0.,12.0,0.,12.0
1979-07-05 09:34:51.850 ,1,0,0.,12.0,0.,12.0,0.,12.0,0.,12.0
1979-07-05 09:35:03.850 ,1,0,0.,12.0,0.,12.0,0.,12.0,0.,12.0
1979-07-05 09:35:15.850 ,0,1,0.,12.0,0.,12.0,0.,12.0,0.,12.0
1979-07-05 09:35:27.850 ,0,1,0.,12.0,0.,12.0,0.,12.0,0.,12.0
1979-07-05 09:35:39.850 ,0,0,0.,12.0,0.,12.0,0.,12.0,0.,12.0
1979-07-05 09:35:51.850 ,0,0,0.,12.0,0.,12.0,0.,12.0,0.,12.0
1979-07-05 09:36:03.850 ,0,1,0.,12.0,0.,12.0,0.,12.0,0.,12.0
1979-07-05 09:36:15.850 ,0,1,0.,12.0,0.,12.0,0.,12.0,0.,12.0
1979-07-05 09:36:27.850 ,0,0,0.,12.0,0.,12.0,0.,12.0,0.,12.0
1979-07-05 09:36:39.850 ,0,0,0.,12.0,0.,12.0,0.,12.0,0.,12.0
1979-07-05 09:36:51.850 ,1,1,0.,12.0,0.,12.0,0.,12.0,0.,12.0
1979-07-05 09:37:03.850 ,1,1,0.,12.0,0.,12.0,0.,12.0,0.,12.0
1979-07-05 09:37:15.850 ,1,0,0.,12.0,0.,12.0,0.,12.0,0.,12.0
1979-07-05 09:37:27.850 ,1,0,0.,12.0,0.,12.0,0.,12.0,0.,12.0
1979-07-05 09:37:39.850 ,2,1,0.,12.0,0.,12.0,0.,12.0,0.,12.0
1979-07-05 09:37:51.850 ,2,1,0.,12.0,0.,12.0,0.,12.0,0.,12.0
1979-07-05 09:38:03.850 ,2,0,0.,12.0,0.,12.0,0.,12.0,0.,12.0
1979-07-05 09:38:15.850 ,2,0,0.,12.0,0.,12.0,0.,12.0,0.,12.0
1979-07-05 09:38:27.850 ,3,1,0.,12.0,0.,12.0,0.,12.0,0.,12.0
1979-07-05 09:38:39.850 ,3,1,0.,12.0,0.,12.0,0.,12.0,0.,12.0
1979-07-05 09:38:51.850 ,3,0,0.,12.0,0.,12.0,0.,12.0,0.,12.0
1979-07-05 09:39:03.850 ,3,0,0.,12.0,0.,12.0,0.,12.0,0.,12.0
1979-07-05 09:39:15.850 ,4,1,0.,12.0,0.,12.0,0.,12.0,0.,12.0
1979-07-05 09:39:27.850 ,4,1,0.,12.0,0.,12.0,0.,12.0,0.,12.0
1979-07-05 09:39:39.850 ,4,0,0.,12.0,0.,12.0,0.,12.0,0.,12.0
1979-07-05 09:39:51.850 ,4,0,0.,12.0,0.,12.0,0.,12.0,0.,12.0
1979-07-05 09:40:03.850 ,5,1,0.,12.0,0.,12.0,0.,12.0,0.,12.0
1979-07-05 09:40:15.850 ,5,1,0.,12.0,0.,12.0,0.,12.0,0.,12.0
1979-07-05 09:40:27.850 ,5,0,0.,12.0,0.,12.0,0.,12.0,0.,12.0
1979-07-05 09:40:39.850 ,5,0,0.,12.0,0.,12.0,0.,12.0,0.,12.0
1979-07-05 09:40:51.850 ,6,1,0.,12.0,0.,12.0,0.,12.0,0.,12.0
1979-07-05 09:41:03.850 ,6,1,0.,12.0,0.,12.0,0.,12.0,0.,12.0
1979-07-05 09:41:15.850 ,6,0,0.,12.0,0.,12.0,0.,12.0,0.,12.0
1979-07-05 09:41:27.850 ,6,0,0.,12.0,0.,12.0,0.,12.0,0.,12.0
1979-07-05 09:41:39.850 ,7,1,0.,12.0,0.,12.0,0.,12.0,0.,12.0
1979-07-05 09:41:51.850 ,7,1,0.,12.0,0.,12.0,0.,12.0,0.,12.0
1979-07-05 09:42:03.850 ,7,0,0.,12.0,0.,12.0,0.,12.0,0.,12.0
1979-07-05 09:42:15.850 ,7,0,0.,12.0,0.,12.0,0.,12.0,0.,12.0
1979-07-05 09:42:27.850 ,7,1,0.,12.0,0.,12.0,0.,12.0,0.,12.0
1979-07-05 09:42:39.850 ,7,1,0.,12.0,0.,12.0,0.,12.0,0.,12.0
1979-07-05 09:42:51.850 ,7,0,0.,12.0,0.,12.0,0.,12.0,0.,12.0
1979-07-05 09:43:03.850 ,7,0,0.,12.0,0.,12.0,0.,12.0,0.,12.0
1979-07-05 09:43:15.850 ,6,1,0.,12.0,0.,12.0,0.,12.0,0.,12.0
1979-07-05 09:43:27.850 ,6,1,0.,12.0,0.,12.0,0.,12.0,0.,12.0
1979-07-05 09:43:39.850 ,6,0,0.,12.0,0.,12.0,0.,12.0,0.,12.0
1979-07-05 09:43:51.850 ,6,0,0.,12.0,0.,12.0,0.,12.0,0.,12.0
1979-07-05 09:44:03.850 ,5,1,0.,12.0,0.,12.0,0.,12.0,0.,12.0
1979-07-05 09:44:15.850 ,5,1,0.,12.0,0.,12.0,0.,12.0,0.,12.0
1979-07-05 09:44:27.850 ,5,0,0.,12.0,0.,12.0,0.,12.0,0.,12.0
1979-07-05 09:44:39.850 ,5,0,0.,12.0,0.,12.0,0.,12.0,0.,12.0
1979-07-05 09:44:51.850 ,4,1,0.,12.0,0.,12.0,0.,12.0,0.,12.0
1979-07-05 09:45:03.850 ,4,1,0.,12.0,0.,12.0,0.,12.0,0.,12.0
1979-07-05 09:45:15.850 ,4,0,0.,12.0,0.,12.0,0.,12.0,0.,12.0
1979-07-05 09:45:27.850 ,4,0,0.,12.0,0.,12.0,0.,12.0,0.,12.0
1979-07-05 09:45:39.850 ,3,1,0.,12.0,0.,12.0,0.,12.0,0.,12.0
1979-07-05 09:45:51.850 ,3,1,0.,12.0,0.,12.0,0.,12.0,0.,12.0
1979-07-05 09:46:03.850 ,3,0,0.,12.0,0.,12.0,0.,12.0,0.,12.0
1979-07-05 09:46:15.850 ,3,0,0.,12.0,0.,12.0,0.,12.0,0.,12.0
1979-07-05 09:46:27.850 ,2,1,0.,12.0,0.,12.0,0.,12.0,0.,12.0
1979-07-05 09:46:39.850 ,2,1,0.,12.0,0.,12.0,0.,12.0,0.,12.0
1979-07-05 09:46:51.850 ,2,0,0.,12.0,0.,12.0,0.,12.0,0.,12.0
1979-07-05 09:47:03.850 ,2,0,0.,12.0,0.,12.0,0.,12.0,0.,12.0
1979-07-05 09:47:15.850 ,1,1,0.,12.0,0.,12.0,0.,12.0,0.,12.0
1979-07-05 09:47:27.850 ,1,1,0.,12.0,0.,12.0,0.,12.0,0.,12.0
1979-07-05 09:47:39.850 ,1,0,0.,12.0,0.,12.0,0.,12.0,0.,12.0
1979-07-05 09:47:51.850 ,1,0,0.,12.0,0.,12.0,0.,12.0,0.,12.0
1979-07-05 09:48:03.850 ,0,1,0.,12.0,0.,12.0,0.,12.0,0.,12.0
1979-07-05 09:48:15.850 ,0,1,0.,12.0,0.,12.0,0.,12.0,0.,12.0
1979-07-05 09:48:27.850 ,0,0,0.,12.0,0.,12.0,0.,12.0,0.,12.0
1979-07-05 09:48:39.850 ,0,0,0.,12.0,0.,12.0,0.,12.0,0.,12.0
1979-07-05 09:48:51.850 ,0,1,0.,12.0,0.,12.0,0.,12.0,0.,12.0
1979-07-05 09:49:03.850 ,0,1,0.,12.0,0.,12.0,0.,12.0,0.,12.0
1979-07-05 09:49:15.850 ,0,0,0.,12.0,0.,12.0,0.,12.0,0.,12.0
1979-07-05 09:49:27.850 ,0,0,0.,12.0,0.,12.0,0.,12.0,0.,12.0
1979-07-05 09:49:39.850 ,1,1,0.,12.0,0.,12.0,0.,12.0,0.,12.0
1979-07-05 09:49:51.850 ,1,1,0.,12.0,0.,12.0,0.,12.0,0.,12.0
1979-07-05 09:50:03.850 ,1,0,0.,12.0,0.,12.0,0.,12.0,0.,12.0
1979-07-05 09:50:15.850 ,1,0,0.,12.0,0.,12.0,0.,12.0,0.,12.0
1979-07-05 09:50:27.850 ,2,1,0.,12.0,0.,12.0,0.,12.0,0.,12.0
1979-07-05 09:50:39.850 ,2,1,0.,12.0,0.,12.0,0.,12.0,0.,12.0
1979-07-05 09:50:51.850 ,2,0,0.,12.0,0.,12.0,0.,12.0,0.,12.0
1979-07-05 09:51:03.850 ,2,0,0.,12.0,0.,12.0,0.,12.0,0.,12.0
1979-07-05 09:51:15.850 ,3,1,0.,12.0,0.,12.0,0.,12.0,0.,12.0
1979-07-05 09:51:27.850 ,3,1,0.,12.0,0.,12.0,0.,12.0,0.,12.0
1979-07-05 09:51:39.850 ,3,0,0.,12.0,0.,12.0,0.,12.0,0.,12.0
1979-07-05 09:51:51.850 ,3,0,0.,12.0,0.,12.0,0.,12.0,0.,12.0
1979-07-05 09:52:03.850 ,4,1,0.,12.0,0.,12.0,0.,12.0,0.,12.0
1979-07-05 09:52:15.850 ,4,1,0.,12.0,0.,12.0,0.,12.0,0.,12.0
1979-07-05 09:52:27.850 ,4,0,0.,12.0,0.,12.0,0.,12.0,0.,12.0
1979-07-05 09:52:39.850 ,4,0,0.,12.0,0.,12.0,0.,12.0,0.,12.0
1979-07-05 09:52:51.850 ,5,1,0.,12.0,0.,12.0,0.,12.0,0.,12.0
1979-07-05 09:53:03.850 ,5,1,0.,12.0,0.,12.0,0.,12.0,0.,12.0
1979-07-05 09:53:15.850 ,5,0,0.,12.0,0.,12.0,0.,12.0,0.,12.0
1979-07-05 09:53:27.850 ,5,0,0.,12.0,0.,12.0,0.,12.0,0.,12.0
1979-07-05 09:53:39.850 ,6,1,0.,12.0,0.,12.0,0.,12.0,0.,12.0
1979-07-05 09:53:51.850 ,6,1,0.,12.0,0.,12.0,0.,12.0,0.,12.0
1979-07-05 09:54:03.850 ,6,0,0.,12.0,0.,12.0,0.,12.0,0.,12.0
1979-07-05 09:54:15.850 ,6,0,0.,12.0,0.,12.0,0.,12.0,0.,12.0
1979-07-05 09:54:27.850 ,7,0,0.,12.0,0.,12.0,0.,12.0,0.,12.0
1979-07-05 09:54:39.850 ,7,0,0.,12.0,0.,12.0,0.,12.0,0.,12.0
1979-07-05 09:54:51.850 ,7,0,0.,12.0,0.,12.0,0.,12.0,0.,12.0
1979-07-05 09:55:03.850 ,7,0,0.,12.0,0.,12.0,0.,12.0,0.,12.0
1979-07-05 09:55:15.840 ,4,1,0.,12.0,0.,12.0,0.,12.0,0.,12.0
1979-07-05 09:55:27.840 ,4,1,0.,12.0,0.,12.0,0.,12.0,0.,12.0
1979-07-05 09:55:39.840 ,0,1,0.,12.0,0.,12.0,0.,12.0,0.,12.0
1979-07-05 09:55:51.840 ,0,1,0.,12.0,0.,12.0,0.,12.0,0.,12.0
1979-07-05 09:56:03.840 ,3,1,0.,12.0,0.,12.0,0.,12.0,0.,12.0
1979-07-05 09:56:15.840 ,3,1,0.,12.0,0.,12.0,0.,12.0,0.,12.0
1979-07-05 09:56:27.840 ,7,1,0.,12.0,0.,12.0,0.,12.0,0.,12.0
1979-07-05 09:56:39.840 ,7,1,0.,12.0,0.,12.0,0.,12.0,0.,12.0
1979-07-05 09:56:51.840 ,4,1,0.,12.0,0.,12.0,0.,12.0,0.,12.0
1979-07-05 09:57:03.840 ,4,1,0.,12.0,0.,12.0,0.,12.0,0.,12.0
1979-07-05 09:57:15.840 ,0,1,0.,12.0,0.,12.0,0.,12.0,0.,12.0
1979-07-05 09:57:27.840 ,0,1,0.,12.0,0.,12.0,0.,12.0,0.,12.0
1979-07-05 09:57:39.840 ,3,1,0.,12.0,0.,12.0,0.,12.0,0.,12.0
1979-07-05 09:57:51.840 ,3,1,0.,12.0,0.,12.0,0.,12.0,0.,12.0
1979-07-05 09:58:03.840 ,7,1,0.,12.0,0.,12.0,0.,12.0,0.,12.0
1979-07-05 09:58:15.840 ,7,1,0.,12.0,0.,12.0,0.,12.0,0.,12.0
1979-07-05 09:58:27.840 ,4,1,0.,12.0,0.,12.0,0.,12.0,0.,12.0
1979-07-05 09:58:39.840 ,4,1,0.,12.0,0.,12.0,0.,12.0,0.,12.0
1979-07-05 09:58:51.840 ,0,1,0.,12.0,0.,12.0,0.,12.0,0.,12.0
1979-07-05 09:59:03.840 ,0,1,0.,12.0,0.,12.0,0.,12.0,0.,12.0
1979-07-05 09:59:15.840 ,3,1,0.,12.0,0.,12.0,0.,12.0,0.,12.0
1979-07-05 09:59:27.840 ,3,1,0.,12.0,0.,12.0,0.,12.0,0.,12.0
1979-07-05 09:59:39.840 ,7,1,0.,12.0,0.,12.0,0.,12.0,0.,12.0
1979-07-05 09:59:51.840 ,7,1,0.,12.0,0.,12.0,0.,12.0,0.,12.0
1979-07-05 10:00:03.840 ,4,1,0.,12.0,0.,12.0,0.,12.0,0.,12.0
1979-07-05 10:00:15.840 ,4,1,0.,12.0,0.,12.0,0.,12.0,0.,12.0
1979-07-05 10:00:27.840 ,0,1,0.,12.0,0.,12.0,0.,12.0,0.,12.0
1979-07-05 10:00:39.840 ,0,1,0.,12.0,0.,12.0,0.,12.0,0.,12.0
1979-07-05 10:00:51.840 ,3,1,0.,12.0,0.,12.0,0.,12.0,0.,12.0
1979-07-05 10:01:03.840 ,3,1,0.,12.0,0.,12.0,0.,12.0,0.,12.0
1979-07-05 10:01:15.840 ,7,1,0.,12.0,0.,12.0,0.,12.0,0.,12.0
1979-07-05 10:01:27.840 ,7,1,0.,12.0,0.,12.0,0.,12.0,0.,12.0
1979-07-05 10:01:39.840 ,4,1,0.,12.0,0.,12.0,0.,12.0,0.,12.0
1979-07-05 10:01:51.840 ,4,1,0.,12.0,0.,12.0,0.,12.0,0.,12.0
1979-07-05 10:02:03.840 ,0,1,0.,12.0,0.,12.0,0.,12.0,0.,12.0
1979-07-05 10:02:15.840 ,0,1,0.,12.0,0.,12.0,0.,12.0,0.,12.0
1979-07-05 10:02:27.840 ,3,1,0.,12.0,0.,12.0,0.,12.0,0.,12.0
1979-07-05 10:02:39.840 ,3,1,0.,12.0,0.,12.0,0.,12.0,0.,12.0
1979-07-05 10:02:51.840 ,7,1,0.,12.0,0.,12.0,0.,12.0,0.,12.0
1979-07-05 10:03:03.840 ,7,1,0.,12.0,0.,12.0,0.,12.0,0.,12.0
1979-07-05 10:03:15.840 ,4,1,0.,12.0,0.,12.0,0.,12.0,0.,12.0
1979-07-05 10:03:27.840 ,4,1,0.,12.0,0.,12.0,0.,12.0,0.,12.0
1979-07-05 10:03:39.840 ,0,1,0.,12.0,0.,12.0,0.,12.0,0.,12.0
1979-07-05 10:03:51.840 ,0,1,0.,12.0,0.,12.0,0.,12.0,0.,12.0
1979-07-05 10:04:03.840 ,3,1,0.,12.0,0.,12.0,0.,12.0,0.,12.0
1979-07-05 10:04:15.840 ,3,1,0.,12.0,0.,12.0,0.,12.0,0.,12.0
1979-07-05 10:04:27.840 ,7,1,0.,12.0,0.,12.0,0.,12.0,0.,12.0
1979-07-05 10:04:39.840 ,7,1,0.,12.0,0.,12.0,0.,12.0,0.,12.0
1979-07-05 10:04:51.840 ,4,1,0.,12.0,0.,12.0,0.,12.0,0.,12.0
1979-07-05 10:05:03.840 ,4,1,0.,12.0,0.,12.0,0.,12.0,0.,12.0
1979-07-05 10:05:15.840 ,0,1,0.,12.0,0.,12.0,0.,12.0,0.,12.0
1979-07-05 10:05:27.840 ,0,1,0.,12.0,0.,12.0,0.,12.0,0.,12.0
1979-07-05 10:05:39.840 ,0,0,0.,12.0,0.,12.0,0.,12.0,0.,12.0
1979-07-05 10:05:51.840 ,0,0,0.,12.0,0.,12.0,0.,12.0,0.,12.0
1979-07-05 10:06:03.840 ,0,0,0.,12.0,0.,12.0,0.,12.0,0.,12.0
1979-07-05 10:06:15.840 ,0,0,0.,12.0,0.,12.0,0.,12.0,0.,12.0
1979-07-05 10:06:27.840 ,5,1,0.,12.0,0.,12.0,0.,12.0,0.,12.0
1979-07-05 10:06:39.840 ,5,1,0.,12.0,0.,12.0,0.,12.0,0.,12.0
1979-07-05 10:06:51.840 ,5,0,0.,12.0,0.,12.0,0.,12.0,0.,12.0
1979-07-05 10:07:03.840 ,5,0,0.,12.0,0.,12.0,0.,12.0,0.,12.0
1979-07-05 10:07:15.840 ,4,1,0.,12.0,0.,12.0,0.,12.0,0.,12.0
1979-07-05 10:07:27.840 ,4,1,0.,12.0,0.,12.0,0.,12.0,1.,12.0
1979-07-05 10:07:39.840 ,4,0,0.,12.0,0.,12.0,0.,12.0,0.,12.0
1979-07-05 10:07:51.840 ,4,0,0.,12.0,0.,12.0,0.,12.0,0.,12.0
1979-07-05 10:08:03.840 ,3,1,0.,12.0,0.,12.0,0.,12.0,0.,12.0
1979-07-05 10:08:15.840 ,3,1,0.,12.0,0.,12.0,0.,12.0,0.,12.0
1979-07-05 10:08:27.840 ,3,0,0.,12.0,0.,12.0,0.,12.0,0.,12.0
1979-07-05 10:08:39.840 ,3,0,0.,12.0,0.,12.0,0.,12.0,0.,12.0
1979-07-05 10:08:51.840 ,2,1,0.,12.0,0.,12.0,0.,12.0,0.,12.0
1979-07-05 10:09:03.840 ,2,1,0.,12.0,0.,12.0,0.,12.0,0.,12.0
1979-07-05 10:09:15.840 ,2,0,0.,12.0,0.,12.0,0.,12.0,0.,12.0
1979-07-05 10:09:27.840 ,2,0,0.,12.0,0.,12.0,0.,12.0,0.,12.0
1979-07-05 10:09:39.840 ,1,1,0.,12.0,0.,12.0,0.,12.0,0.,12.0
1979-07-05 10:09:51.840 ,1,1,0.,12.0,0.,12.0,0.,12.0,0.,12.0
1979-07-05 10:10:03.840 ,1,0,0.,12.0,0.,12.0,0.,12.0,0.,12.0
1979-07-05 10:10:15.840 ,1,0,0.,12.0,0.,12.0,0.,12.0,0.,12.0
1979-07-05 10:10:27.840 ,0,1,0.,12.0,0.,12.0,0.,12.0,0.,12.0
1979-07-05 10:10:39.840 ,0,1,0.,12.0,0.,12.0,0.,12.0,0.,12.0
1979-07-05 10:10:51.840 ,0,0,0.,12.0,0.,12.0,0.,12.0,0.,12.0
1979-07-05 10:11:03.840 ,0,0,0.,12.0,0.,12.0,0.,12.0,0.,12.0
1979-07-05 10:11:15.840 ,0,1,0.,12.0,0.,12.0,0.,12.0,0.,12.0
1979-07-05 10:11:27.840 ,0,1,0.,12.0,0.,12.0,0.,12.0,0.,12.0
1979-07-05 10:11:39.840 ,0,0,0.,12.0,0.,12.0,0.,12.0,0.,12.0
1979-07-05 10:11:51.840 ,0,0,0.,12.0,0.,12.0,0.,12.0,0.,12.0
1979-07-05 10:12:03.840 ,1,1,0.,12.0,0.,12.0,0.,12.0,0.,12.0
1979-07-05 10:12:15.840 ,1,1,0.,12.0,0.,12.0,0.,12.0,0.,12.0
1979-07-05 10:12:27.840 ,1,0,0.,12.0,0.,12.0,0.,12.0,0.,12.0
1979-07-05 10:12:39.840 ,1,0,0.,12.0,0.,12.0,0.,12.0,0.,12.0
1979-07-05 10:12:51.840 ,2,1,0.,12.0,0.,12.0,0.,12.0,0.,12.0
1979-07-05 10:13:03.840 ,2,1,0.,12.0,0.,12.0,0.,12.0,0.,12.0
1979-07-05 10:13:15.840 ,2,0,0.,12.0,0.,12.0,0.,12.0,0.,12.0
1979-07-05 10:13:27.840 ,2,0,0.,12.0,0.,12.0,0.,12.0,0.,12.0
1979-07-05 10:13:39.840 ,3,1,0.,12.0,0.,12.0,0.,12.0,0.,12.0
1979-07-05 10:13:51.840 ,3,1,0.,12.0,0.,12.0,0.,12.0,0.,12.0
1979-07-05 10:14:03.840 ,3,0,0.,12.0,0.,12.0,0.,12.0,0.,12.0
1979-07-05 10:14:15.840 ,3,0,0.,12.0,0.,12.0,0.,12.0,0.,12.0
1979-07-05 10:14:27.840 ,4,1,0.,12.0,0.,12.0,0.,12.0,0.,12.0
1979-07-05 10:14:39.840 ,4,1,0.,12.0,0.,12.0,0.,12.0,0.,12.0
1979-07-05 10:14:51.840 ,4,0,0.,12.0,0.,12.0,0.,12.0,0.,12.0
1979-07-05 10:15:03.840 ,4,0,0.,12.0,0.,12.0,0.,12.0,0.,12.0
1979-07-05 10:15:15.840 ,5,1,0.,12.0,0.,12.0,0.,12.0,0.,12.0
1979-07-05 10:15:27.840 ,5,1,0.,12.0,0.,12.0,0.,12.0,0.,12.0
1979-07-05 10:15:39.840 ,5,0,0.,12.0,0.,12.0,0.,12.0,0.,12.0
1979-07-05 10:15:51.840 ,5,0,0.,12.0,0.,12.0,0.,12.0,0.,12.0
1979-07-05 10:16:03.840 ,6,1,0.,12.0,0.,12.0,0.,12.0,0.,12.0
1979-07-05 10:16:15.840 ,6,1,0.,12.0,0.,12.0,0.,12.0,0.,12.0
1979-07-05 10:16:27.840 ,6,0,0.,12.0,0.,12.0,0.,12.0,0.,12.0
1979-07-05 10:16:39.840 ,6,0,0.,12.0,0.,12.0,0.,12.0,0.,12.0
1979-07-05 10:16:51.840 ,7,1,0.,12.0,0.,12.0,0.,12.0,0.,12.0
1979-07-05 10:17:03.840 ,7,1,0.,12.0,0.,12.0,0.,12.0,0.,12.0
1979-07-05 10:17:15.840 ,7,0,0.,12.0,0.,12.0,0.,12.0,0.,12.0
1979-07-05 10:17:27.840 ,7,0,0.,12.0,0.,12.0,0.,12.0,0.,12.0